Location: *
(46.1833°N, 22.7667°E)
Time: 15:05:40
(UTC+00:00)

Cosmos 2341 Rocket - Pass Details

Date: 17 September 2019
Orbit: 967 x 1005 km, 82.9° (Epoch: 16 October)

Event Time Altitude Azimuth Distance (km) Brightness Sun altitude
Rises 17:53:33 0° 354° (N) 3,697 7.4 -13.8°
Reaches altitude 10° 17:56:09 10° 358° (N) 2,739 6.6 -14.2°
Maximum altitude 18:02:19 58° 78° (ENE) 1,123 4.0 -15.2°
Enters shadow 18:08:06 12° 156° (SSE) 2,591 5.8 -16.1°
